Lake Medina Weather Center

Moon Phase Calendar



Lake Medina Water Level
Online Cameras

 


      

Current Conditions in Lakehills
2/22/2024 5:51:02 PM

84°F
Feels Like 81
Clouds
Humidity
20%
Pressure
29.8"
Wind
9.2 mph (NW)
Dew Point
38°F
UV Index
0/10 (Low)
Visibility
6 mi

Hourly Forecast

Date & Time Thu, Feb 22
5:00 PM
Thu, Feb 22
6:00 PM
Thu, Feb 22
7:00 PM
Thu, Feb 22
8:00 PM
Thu, Feb 22
9:00 PM
Thu, Feb 22
10:00 PM
Thu, Feb 22
11:00 PM
Fri, Feb 23
12:00 AM
Fri, Feb 23
1:00 AM
Fri, Feb 23
2:00 AM
Fri, Feb 23
3:00 AM
Fri, Feb 23
4:00 AM
Fri, Feb 23
5:00 AM
Fri, Feb 23
6:00 AM
Fri, Feb 23
7:00 AM
Fri, Feb 23
8:00 AM
Fri, Feb 23
9:00 AM
Fri, Feb 23
10:00 AM
Fri, Feb 23
11:00 AM
Fri, Feb 23
12:00 PM
Fri, Feb 23
1:00 PM
Fri, Feb 23
2:00 PM
Fri, Feb 23
3:00 PM
Fri, Feb 23
4:00 PM
Fri, Feb 23
5:00 PM
Fri, Feb 23
6:00 PM
Fri, Feb 23
7:00 PM
Fri, Feb 23
8:00 PM
Fri, Feb 23
9:00 PM
Fri, Feb 23
10:00 PM
Fri, Feb 23
11:00 PM
Sat, Feb 24
12:00 AM
Sat, Feb 24
1:00 AM
Sat, Feb 24
2:00 AM
Sat, Feb 24
3:00 AM
Sat, Feb 24
4:00 AM
Sat, Feb 24
5:00 AM
Sat, Feb 24
6:00 AM
Sat, Feb 24
7:00 AM
Sat, Feb 24
8:00 AM
Sat, Feb 24
9:00 AM
Sat, Feb 24
10:00 AM
Sat, Feb 24
11:00 AM
Sat, Feb 24
12:00 PM
Sat, Feb 24
1:00 PM
Sat, Feb 24
2:00 PM
Sat, Feb 24
3:00 PM
Sat, Feb 24
4:00 PM
Condition
Clouds

Clouds

Clouds

Clouds

Clouds

Clouds

Clouds

Clouds

Clear

Clear

Clear

Clear

Clear

Clear

Clear

Clear

Clouds

Clouds

Clouds

Clouds

Clear

Clouds

Clouds

Clouds

Clouds

Clouds

Clouds

Clouds

Clouds

Clouds

Clouds

Clouds

Clouds

Clouds

Clouds

Clouds

Clouds

Clouds

Clouds

Clear

Clear

Clouds

Clouds

Clouds

Clear

Clear

Clouds

Clouds
Temperature 83°F84°F81°F77°F72°F67°F62°F61°F60°F59°F58°F58°F58°F57°F56°F57°F61°F66°F68°F71°F73°F74°F74°F74°F72°F68°F63°F61°F60°F58°F58°F57°F57°F57°F56°F55°F53°F52°F51°F55°F60°F64°F67°F69°F71°F72°F72°F72°F
Feels Like 81°F81°F79°F75°F70°F65°F60°F59°F57°F56°F56°F56°F56°F55°F54°F55°F60°F64°F67°F69°F71°F72°F72°F72°F70°F66°F61°F59°F57°F56°F55°F55°F55°F55°F54°F53°F51°F50°F49°F53°F58°F62°F65°F67°F69°F70°F71°F70°F
Cloudiness 30%29%32%39%38%32%27%23%0%0%0%0%0%0%3%6%20%19%26%24%6%15%16%19%35%43%95%98%98%96%97%97%100%100%100%100%96%90%11%7%8%13%13%14%0%0%24%28%
Visibility 6 mi6 mi6 mi6 mi6 mi6 mi6 mi6 mi6 mi6 mi6 mi6 mi6 mi6 mi6 mi6 mi6 mi6 mi6 mi6 mi6 mi6 mi6 mi6 mi6 mi6 mi6 mi6 mi6 mi6 mi6 mi6 mi6 mi6 mi6 mi6 mi6 mi6 mi6 mi6 mi6 mi6 mi6 mi6 mi6 mi6 mi6 mi6 mi
Precipitation 0%0%0%0%0%0%0%0%0%0%0%0%0%0%0%0%0%0%0%0%0%0%0%0%0%0%0%0%0%0%0%0%0%0%0%0%0%0%0%0%0%0%0%0%0%0%0%0%
Humidity 19%20%21%21%22%25%30%37%43%47%49%51%52%53%56%56%49%41%34%30%27%26%25%25%27%37%40%43%46%50%52%54%55%56%57%59%62%64%65%61%50%43%38%34%32%30%29%29%
Dew Point 37°F38°F37°F34°F32°F30°F31°F35°F37°F39°F40°F40°F40°F40°F40°F42°F42°F41°F39°F38°F37°F36°F36°F36°F37°F40°F38°F39°F39°F40°F40°F41°F41°F41°F41°F41°F40°F40°F40°F42°F41°F41°F41°F40°F40°F39°F39°F38°F
Pressure 29.8"29.8"29.8"29.83"29.85"29.85"29.94"29.94"29.97"29.97"29.97"29.97"30"30.03"30.06"30.09"30.09"30.12"30.12"30.09"30.09"30.06"30.03"30.03"30.03"30.03"30.06"30.09"30.12"30.12"30.15"30.15"30.15"30.15"30.12"30.12"30.15"30.18"30.18"30.21"30.21"30.21"30.21"30.18"30.15"30.12"30.09"30.06"
Wind Speed 14.8 mph9.2 mph8 mph7.4 mph7.7 mph8.1 mph10.5 mph10.6 mph9.8 mph10.3 mph11.2 mph12.6 mph12.7 mph11.7 mph10.6 mph10 mph13.7 mph14.2 mph13.8 mph11.5 mph9.8 mph8.5 mph6.8 mph7 mph7.1 mph6 mph6.4 mph6.2 mph5.4 mph4.4 mph4.2 mph4.6 mph4.3 mph4.7 mph5 mph5 mph4.1 mph4.2 mph4.5 mph3.6 mph6 mph8.9 mph10.6 mph11.9 mph12.7 mph14.2 mph15.1 mph15.3 mph
Wind
Direction
310°
NW
313°
NW
326°
NW
350°
N

N

N
14°
NNE
14°
NNE
14°
NNE
14°
NNE
16°
NNE
17°
NNE
21°
NNE
22°
NNE
23°
NNE
22°
NNE
28°
NNE
32°
NNE
35°
NE
41°
NE
39°
NE
45°
NE
48°
NE
49°
NE
54°
NE
80°
E
86°
E
86°
E
92°
E
108°
ESE
104°
ESE
98°
E
96°
E
98°
E
94°
E
103°
ESE
102°
ESE
118°
ESE
107°
ESE
99°
E
135°
SE
151°
SSE
160°
SSE
160°
SSE
163°
SSE
166°
SSE
166°
SSE
167°
SSE

Daily Forecast

Date High Low Precip. Humidity
Today
Feb 22

Clouds
85 °F
60 °F
4%
26%
Friday
Feb 23

Clouds
74 °F
56 °F
0%
30%
Saturday
Feb 24

Clouds
72 °F
51 °F
0%
34%
Sunday
Feb 25

Clouds
79 °F
52 °F
0%
61%
Monday
Feb 26

Clouds
84 °F
59 °F
0%
53%
Tuesday
Feb 27

Clouds
79 °F
62 °F
0%
62%
Wednesday
Feb 28

Clouds
79 °F
61 °F
18%
28%
Thursday
Feb 29

Clouds
64 °F
43 °F
0%
18%
Friday
Mar 1

Rain
49 °F
45 °F
37%
49%
Saturday
Mar 2

Clear
66 °F
42 °F
0%
37%
Sunday
Mar 3

Clouds
69 °F
47 °F
0%
51%
Monday
Mar 4

Clear
75 °F
50 °F
0%
53%
Tuesday
Mar 5

Rain
69 °F
58 °F
61%
65%
Wednesday
Mar 6

Rain
69 °F
56 °F
50%
64%
Thursday
Mar 7

Clouds
70 °F
56 °F
54%
52%
Friday
Mar 8

Clouds
71 °F
53 °F
8%
48%

Temperature 8-14 Day Outlook



Precipitation 8-14 Day Outlook




Quick Links
Lake Medina News
Lake Medina Photos
Lake Medina Videos




About Us
Contact Us
Site Map
Search Site
Advertise With Us
   
Medina.USLakes.info
THE LAKE MEDINA WEBSITE

Copyright 2024, Lakes Online
Privacy    |    Legal